Regional Weather Roundup
Issued by NWS

Home | Current Version | Previous Version | Graphics & Text | Print | Product List | Glossary Off
Versions: 1 2 3 4 5 6 7 8 9 10 11 12 13 14 15 16 17 18 19 20 21 22 23 24 25 26 27 28 29 30 31 32 33 34 35 36 37 38 39 40 41 42 43 44 45 46 47 48 49 50

638
ASUS45 KSLC 242010
RWRUT

UTAH REGIONAL WEATHER ROUNDUP
NATIONAL WEATHER SERVICE SALT LAKE CITY UT
200 PM MDT TUE MAY 24 2016

UTZ001>011-023>025-242100-

NORTHERN UTAH

CITY           SKY/WX    TMP DP  RH WIND       PRES   REMARKS
BRIGHAM CITY     N/A     67  34  29 S12       29.82R
HILL AFB       LGT RAIN  56  36  46 CALM      29.88R
LOGAN          PTSUNNY   67  41  38 VRB5      29.80S
OGDEN          LGT RAIN  57  34  41 SW10G28   29.87R
PROVO AIRPORT  MOSUNNY   66  34  30 S12G17    29.84F
SALT LAKE CITY CLOUDY    65  33  30 VRB6      29.81S THUNDER
VERNAL         SUNNY     70  31  23 S16G22    29.82F
WENDOVER       PTSUNNY   63  34  34 S24G32    29.84F
HEBER CITY     CLOUDY    55  34  44 W5        29.88S
WEST JORDAN    CLOUDY    64  30  27 SE16G30   29.82S

$$

UTZ012>022-026-027-242100-

SOUTHERN/CENTRAL UTAH

CITY           SKY/WX    TMP DP  RH WIND       PRES   REMARKS
BLANDING       SUNNY     69  18  14 S18G30    30.02F
BRYCE CANYON   LGT RAIN  48  29  47 W15G33    30.03R
CEDAR CITY     MOSUNNY   66  26  22 SW18G32   29.89R
DELTA          MOSUNNY   68  23  18 W15G21    29.82S
HANKSVILLE     MOSUNNY   73  19  13 S14G29    29.85S
MILFORD        PTSUNNY   70  24  17 S20G29    29.84F
MOAB/CYNLANDS  MOSUNNY   77  18  11 SW20G32   29.81F
PRICE          CLOUDY    66  23  19 SW14G35   29.89R
ST GEORGE      CLOUDY    77  28  16 SW22G32   29.83S

$$

REGIONAL REPORTS     COLORADO/ARIZONA

CITY           SKY/WX    TMP DP  RH WIND       PRES   REMARKS
CRAIG, CO      CLOUDY    71  25  17 SW22G30   29.88F
GRAND JUNCTION SUNNY     77  21  12 SW23G32   29.83F
RIFLE          SUNNY     74  17  11 SW20G26   29.85F
MONTROSE       SUNNY     76  20  12 SW16G32   29.88F
CORTEZ         SUNNY     74  21  13 S22G32    29.97F
PAGE, AZ       PTSUNNY   75  20  12 S15G22    29.87S
GRAND CANYON   MOSUNNY   64  21  19 SW22G44   30.01S
KINGMAN        SUNNY     74  28  18 SW25G39   29.92S
FLAGSTAFF      SUNNY     59  24  26 SW31G46   30.05S

$$

REGIONAL REPORTS    NEVADA/IDAHO/WYOMING

CITY           SKY/WX    TMP DP  RH WIND       PRES   REMARKS
LAS VEGAS, NV  MOSUNNY   77  32  19 SW17G25   29.79S
ELY            PTSUNNY   49  36  61 NW13      29.91R
ELKO           PTSUNNY   58  37  45 N10       29.88R
POCATELLO, ID  PTSUNNY   62  37  39 VRB7      29.86R
BURLEY         PTSUNNY   60  41  49 S13G18    29.85S
EVANSTON, WY   CLOUDY    53  33  46 VRB6      29.91S
ROCK SPRINGS   PTSUNNY   66  20  17 S29G39    29.85F
KEMMERER         N/A     52  32  46 SE7       29.94S

$$




USA.gov is the U.S. government's official web portal to all federal, state and local government web resources and services.